Powrót do katalogu

FENGYUN 1C DEB

AktywnyPO
NORAD 30136·DEBRIS·🇨🇳 China

Wystrzelony May 10, 1999 z Taiyuan Satellite Launch Center

Loading…

Następne Przeloty (najbliższe 24 godziny)

TLE

ŚwieżeSource: Space-Track

Epoka: Sep 14, 2026, 03:52 UTC

1 30136U 99025SR  26257.16115396  .00000216  00000-0  17513-3 0  9991
2 30136  98.5233 135.0371 0129192  24.2180 126.5492 13.95598871999323

Śledź FENGYUN 1C DEB w czasie rzeczywistym z AllMySat

Download on the App Store